TimePST,TemperatureF,Dew PointF,Humidity,Sea Level PressureIn,VisibilityMPH,Wind Direction,Wind SpeedMPH,Gust SpeedMPH,PrecipitationIn,Events,Conditions,WindDirDegrees,DateUTC
12:51 AM,63.0,37.0,38,30.01,10.0,East,4.6,-,N/A,,Clear,90,2012-11-06 08:51:00
1:51 AM,61.0,37.0,41,30.01,10.0,East,4.6,-,N/A,,Clear,80,2012-11-06 09:51:00
2:51 AM,61.0,37.0,41,30.00,10.0,Calm,Calm,-,N/A,,Clear,0,2012-11-06 10:51:00
3:51 AM,59.0,37.9,46,30.01,10.0,ENE,4.6,-,N/A,,Clear,60,2012-11-06 11:51:00
4:51 AM,57.9,37.0,46,30.02,10.0,Calm,Calm,-,N/A,,Clear,0,2012-11-06 12:51:00
5:51 AM,57.0,37.9,49,30.03,10.0,ESE,3.5,-,N/A,,Clear,110,2012-11-06 13:51:00
6:51 AM,55.9,37.0,49,30.04,10.0,Calm,Calm,-,N/A,,Clear,0,2012-11-06 14:51:00
7:51 AM,64.0,41.0,43,30.06,10.0,Calm,Calm,-,N/A,,Clear,0,2012-11-06 15:51:00
8:51 AM,70.0,44.1,39,30.07,10.0,Calm,Calm,-,N/A,,Clear,0,2012-11-06 16:51:00
9:51 AM,73.0,46.9,39,30.06,10.0,SSE,5.8,-,N/A,,Clear,160,2012-11-06 17:51:00
10:51 AM,75.0,52.0,44,30.05,10.0,SSE,4.6,-,N/A,,Clear,160,2012-11-06 18:51:00
11:51 AM,73.0,57.0,57,30.04,10.0,SSW,9.2,-,N/A,,Clear,200,2012-11-06 19:51:00
12:51 PM,73.0,57.0,57,30.02,10.0,SSW,5.8,-,N/A,,Clear,200,2012-11-06 20:51:00
1:51 PM,71.1,59.0,66,30.01,10.0,SSW,9.2,-,N/A,,Clear,200,2012-11-06 21:51:00
2:51 PM,71.1,60.1,68,30.01,10.0,SSW,4.6,-,N/A,,Clear,210,2012-11-06 22:51:00
3:51 PM,71.1,55.9,59,30.00,10.0,SSW,3.5,-,N/A,,Clear,210,2012-11-06 23:51:00
4:51 PM,69.1,60.1,73,29.99,10.0,SSW,3.5,-,N/A,,Clear,200,2012-11-07 00:51:00
5:51 PM,66.0,60.1,81,30.01,10.0,South,3.5,-,N/A,,Clear,190,2012-11-07 01:51:00
6:51 PM,63.0,60.1,90,30.01,8.0,Calm,Calm,-,N/A,,Clear,0,2012-11-07 02:51:00
7:51 PM,62.1,59.0,90,30.03,6.0,Calm,Calm,-,N/A,,Clear,0,2012-11-07 03:51:00
7:56 PM,60.8,57.2,88,30.03,1.0,Calm,Calm,-,N/A,,Partly Cloudy,0,2012-11-07 03:56:00
8:07 PM,59.0,57.2,94,30.03,0.2,Calm,Calm,-,N/A,Fog,Fog,0,2012-11-07 04:07:00
8:40 PM,57.2,57.2,100,30.04,3.0,Calm,Calm,-,N/A,,Partly Cloudy,0,2012-11-07 04:40:00
8:51 PM,59.0,57.9,96,30.04,3.0,Calm,Calm,-,N/A,,Partly Cloudy,0,2012-11-07 04:51:00
8:58 PM,57.2,57.2,100,30.04,2.5,Calm,Calm,-,N/A,,Partly Cloudy,0,2012-11-07 04:58:00
9:05 PM,57.2,57.2,100,30.04,4.0,Calm,Calm,-,N/A,,Clear,0,2012-11-07 05:05:00
9:51 PM,60.1,57.0,90,30.05,9.0,Calm,Calm,-,N/A,,Clear,0,2012-11-07 05:51:00
10:13 PM,60.8,57.2,88,30.06,9.0,Calm,Calm,-,N/A,,Scattered Clouds,0,2012-11-07 06:13:00
10:22 PM,60.8,55.4,82,30.06,9.0,Calm,Calm,-,N/A,,Mostly Cloudy,0,2012-11-07 06:22:00
10:38 PM,59.0,55.4,88,30.06,9.0,Calm,Calm,-,N/A,,Scattered Clouds,0,2012-11-07 06:38:00
10:51 PM,57.9,54.0,87,30.06,10.0,Calm,Calm,-,N/A,,Clear,0,2012-11-07 06:51:00
11:10 PM,60.8,55.4,82,30.06,9.0,Calm,Calm,-,N/A,,Scattered Clouds,0,2012-11-07 07:10:00
11:19 PM,57.2,55.4,94,30.06,9.0,Calm,Calm,-,N/A,,Mostly Cloudy,0,2012-11-07 07:19:00
11:51 PM,59.0,55.9,90,30.06,7.0,Calm,Calm,-,N/A,,Overcast,0,2012-11-07 07:51:00